Time,TemperatureF,DewpointF,PressureIn,WindDirection,WindDirectionDegrees,WindSpeedMPH,WindSpeedGustMPH,Humidity,HourlyPrecipIn,Conditions,Clouds,dailyrainin,SoftwareType,DateUTC
2013-02-11 00:00:00,71.6,59.1,30.06,SE,135,3.1,3.1,57,0.00,,,-99.99,Homeseer,2013-02-11 05:00:00,
2013-02-11 00:10:00,71.4,58.6,30.06,North,0,5.8,5.8,56,0.00,,,-99.99,Homeseer,2013-02-11 05:10:00,
2013-02-11 00:20:00,71.4,59.3,30.06,SE,135,5.4,6.0,58,0.00,,,-99.99,Homeseer,2013-02-11 05:20:00,
2013-02-11 00:30:00,71.4,59.3,30.06,SSE,157,3.6,5.6,58,0.00,,,-99.99,Homeseer,2013-02-11 05:30:00,
2013-02-11 00:40:00,71.4,58.9,30.06,North,0,4.7,4.7,57,0.00,,,-99.99,Homeseer,2013-02-11 05:40:00,
2013-02-11 00:50:00,71.2,59.1,30.06,South,180,3.4,4.9,58,0.00,,,-99.99,Homeseer,2013-02-11 05:50:00,
2013-02-11 01:00:00,71.2,59.1,30.06,SE,135,4.0,4.0,58,0.00,,,-99.99,Homeseer,2013-02-11 06:00:00,
2013-02-11 01:10:00,71.1,59.4,30.06,North,0,5.6,5.6,59,0.00,,,-99.99,Homeseer,2013-02-11 06:10:00,
2013-02-11 01:20:00,71.1,58.7,30.06,South,180,3.1,3.1,57,0.00,,,-99.99,Homeseer,2013-02-11 06:20:00,
2013-02-11 01:30:00,70.9,58.5,30.03,SSE,157,3.1,3.1,57,0.00,,,-99.99,Homeseer,2013-02-11 06:30:00,
2013-02-11 01:40:00,70.9,58.5,30.03,North,0,2.9,5.4,57,0.00,,,-99.99,Homeseer,2013-02-11 06:40:00,
2013-02-11 01:50:00,70.9,58.1,30.03,SE,135,4.0,4.0,56,0.00,,,-99.99,Homeseer,2013-02-11 06:50:00,
2013-02-11 02:00:00,70.9,59.6,30.03,South,180,6.0,8.7,60,0.00,,,-99.99,Homeseer,2013-02-11 07:00:00,
2013-02-11 02:10:00,70.9,59.2,30.03,South,180,5.6,5.6,59,0.00,,,-99.99,Homeseer,2013-02-11 07:10:00,
2013-02-11 02:20:00,70.9,58.8,30.03,SSE,157,4.3,4.3,58,0.00,,,-99.99,Homeseer,2013-02-11 07:20:00,
2013-02-11 02:30:00,70.9,59.6,30.03,North,0,4.3,5.4,60,0.00,,,-99.99,Homeseer,2013-02-11 07:30:00,
2013-02-11 02:40:00,70.9,59.6,30.03,North,0,5.6,5.6,60,0.00,,,-99.99,Homeseer,2013-02-11 07:40:00,
2013-02-11 02:50:00,70.9,59.9,30.03,SE,135,3.4,3.6,61,0.00,,,-99.99,Homeseer,2013-02-11 07:50:00,
2013-02-11 03:00:00,71.1,60.5,30.03,North,0,3.8,7.2,62,0.00,,,-99.99,Homeseer,2013-02-11 08:00:00,
2013-02-11 03:10:00,71.1,60.8,30.03,North,0,4.3,4.3,63,0.00,,,-99.99,Homeseer,2013-02-11 08:10:00,
2013-02-11 03:20:00,71.1,61.1,30.03,SSE,157,3.8,4.0,64,0.00,,,-99.99,Homeseer,2013-02-11 08:20:00,
2013-02-11 03:30:00,71.1,61.5,30.03,South,180,5.4,8.1,65,0.00,,,-99.99,Homeseer,2013-02-11 08:30:00,
2013-02-11 03:40:00,71.1,61.1,30.03,SSE,157,3.8,4.0,64,0.00,,,-99.99,Homeseer,2013-02-11 08:40:00,
2013-02-11 03:50:00,71.1,61.1,30.03,South,180,4.5,4.5,64,0.00,,,-99.99,Homeseer,2013-02-11 08:50:00,
2013-02-11 04:00:00,70.9,60.3,30.03,SSE,157,3.8,3.8,62,0.00,,,-99.99,Homeseer,2013-02-11 09:00:00,
2013-02-11 04:10:00,71.1,61.5,30.03,North,0,6.3,6.3,65,0.00,,,-99.99,Homeseer,2013-02-11 09:10:00,
2013-02-11 04:20:00,71.1,60.8,30.00,SSE,157,3.8,6.0,63,0.00,,,-99.99,Homeseer,2013-02-11 09:20:00,
2013-02-11 04:30:00,71.2,60.9,30.03,South,180,5.4,5.4,63,0.00,,,-99.99,Homeseer,2013-02-11 09:30:00,
2013-02-11 04:40:00,71.2,61.6,30.03,South,180,3.6,8.7,65,0.00,,,-99.99,Homeseer,2013-02-11 09:40:00,
2013-02-11 04:50:00,71.2,61.9,30.03,SSE,157,5.4,5.4,66,0.00,,,-99.99,Homeseer,2013-02-11 09:50:00,
2013-02-11 05:00:00,71.1,61.5,30.03,North,0,3.8,3.8,65,0.00,,,-99.99,Homeseer,2013-02-11 10:00:00,
2013-02-11 05:10:00,70.9,61.0,30.03,North,0,3.4,4.5,64,0.00,,,-99.99,Homeseer,2013-02-11 10:10:00,
2013-02-11 05:20:00,70.7,60.8,30.03,SSE,157,4.7,4.7,64,0.00,,,-99.99,Homeseer,2013-02-11 10:20:00,
2013-02-11 05:30:00,70.7,60.8,30.03,North,0,3.6,3.6,64,0.00,,,-99.99,Homeseer,2013-02-11 10:30:00,
2013-02-11 05:40:00,70.7,61.1,30.03,South,180,3.6,3.6,65,0.00,,,-99.99,Homeseer,2013-02-11 10:40:00,
2013-02-11 05:50:00,70.3,61.1,30.03,SE,135,5.6,5.6,66,0.00,,,-99.99,Homeseer,2013-02-11 10:50:00,
2013-02-11 06:00:00,70.2,61.9,30.03,North,0,6.7,6.7,69,0.00,,,-99.99,Homeseer,2013-02-11 11:00:00,
2013-02-11 06:10:00,70.3,62.3,30.03,North,0,4.5,5.6,70,0.00,,,-99.99,Homeseer,2013-02-11 11:10:00,
2013-02-11 06:20:00,70.2,61.9,30.03,SE,135,4.7,5.4,69,0.00,,,-99.99,Homeseer,2013-02-11 11:20:00,
2013-02-11 06:30:00,70.3,61.4,30.03,SSE,157,5.4,6.7,67,0.00,,,-99.99,Homeseer,2013-02-11 11:30:00,
2013-02-11 06:40:00,70.5,61.2,30.03,SSE,157,5.4,5.4,66,0.00,,,-99.99,Homeseer,2013-02-11 11:40:00,
2013-02-11 06:50:00,70.3,61.1,30.03,SSE,157,5.8,5.8,66,0.00,,,-99.99,Homeseer,2013-02-11 11:50:00,
2013-02-11 07:00:00,70.5,61.2,30.03,SSE,157,4.7,4.7,66,0.00,,,-99.99,Homeseer,2013-02-11 12:00:00,
2013-02-11 07:10:00,70.7,61.8,30.03,WSW,247,2.9,2.9,67,0.00,,,-99.99,Homeseer,2013-02-11 12:10:00,
2013-02-11 07:20:00,70.9,61.6,30.03,ESE,112,4.9,4.9,66,0.00,,,-99.99,Homeseer,2013-02-11 12:20:00,
2013-02-11 07:30:00,71.1,61.1,30.06,SE,135,5.6,5.6,64,0.00,,,-99.99,Homeseer,2013-02-11 12:30:00,
2013-02-11 07:40:00,71.4,61.8,30.06,South,180,6.3,6.3,65,0.00,,,-99.99,Homeseer,2013-02-11 12:40:00,
2013-02-11 07:50:00,71.6,61.9,30.06,ESE,112,4.7,4.7,65,0.00,,,-99.99,Homeseer,2013-02-11 12:50:00,
2013-02-11 08:00:00,71.8,62.1,30.06,North,0,3.6,3.8,65,0.00,,,-99.99,Homeseer,2013-02-11 13:00:00,
2013-02-11 08:10:00,72.1,62.4,30.06,SE,135,3.6,4.3,65,0.00,,,-99.99,Homeseer,2013-02-11 13:10:00,
2013-02-11 08:20:00,72.3,61.9,30.06,WSW,247,4.3,4.3,63,0.00,,,-99.99,Homeseer,2013-02-11 13:20:00,
2013-02-11 08:30:00,72.9,62.8,30.06,South,180,5.4,5.8,64,0.00,,,-99.99,Homeseer,2013-02-11 13:30:00,
2013-02-11 08:40:00,73.0,62.6,30.06,ESE,112,4.9,7.6,63,0.00,,,-99.99,Homeseer,2013-02-11 13:40:00,
2013-02-11 08:50:00,73.4,62.6,30.06,SSE,157,5.6,5.6,62,0.00,,,-99.99,Homeseer,2013-02-11 13:50:00,
2013-02-11 09:00:00,73.6,62.1,30.06,ESE,112,4.5,4.5,60,0.00,,,-99.99,Homeseer,2013-02-11 14:00:00,
2013-02-11 09:10:00,74.1,61.8,30.06,ESE,112,5.6,8.5,58,0.00,,,-99.99,Homeseer,2013-02-11 14:10:00,
2013-02-11 09:20:00,74.1,61.0,30.06,South,180,4.0,6.0,56,0.00,,,-99.99,Homeseer,2013-02-11 14:20:00,
2013-02-11 09:30:00,74.7,61.6,30.06,North,0,3.8,7.6,56,0.00,,,-99.99,Homeseer,2013-02-11 14:30:00,
2013-02-11 09:40:00,74.8,61.7,30.06,South,180,4.3,6.3,56,0.00,,,-99.99,Homeseer,2013-02-11 14:40:00,
2013-02-11 09:50:00,75.2,61.3,30.09,South,180,4.5,4.9,54,0.00,,,-99.99,Homeseer,2013-02-11 14:50:00,
2013-02-11 10:00:00,74.8,61.7,30.09,SSE,157,3.6,5.6,56,0.00,,,-99.99,Homeseer,2013-02-11 15:00:00,
2013-02-11 10:10:00,75.0,61.5,30.09,North,0,3.6,3.8,55,0.00,,,-99.99,Homeseer,2013-02-11 15:10:00,
2013-02-11 10:20:00,75.2,61.7,30.06,South,180,3.8,3.8,55,0.00,,,-99.99,Homeseer,2013-02-11 15:20:00,
2013-02-11 10:30:00,75.4,61.8,30.09,South,180,5.4,6.0,55,0.00,,,-99.99,Homeseer,2013-02-11 15:30:00,
2013-02-11 10:40:00,75.2,62.1,30.09,North,0,2.9,3.8,56,0.00,,,-99.99,Homeseer,2013-02-11 15:40:00,
2013-02-11 10:50:00,76.1,62.1,30.09,SSE,157,8.1,8.1,54,0.00,,,-99.99,Homeseer,2013-02-11 15:50:00,
2013-02-11 11:00:00,76.3,61.9,30.06,ESE,112,5.8,6.3,53,0.00,,,-99.99,Homeseer,2013-02-11 16:00:00,
2013-02-11 11:10:00,76.6,61.7,30.06,South,180,7.6,7.8,52,0.00,,,-99.99,Homeseer,2013-02-11 16:10:00,
2013-02-11 11:20:00,77.4,62.4,30.06,North,0,4.0,5.6,52,0.00,,,-99.99,Homeseer,2013-02-11 16:20:00,
2013-02-11 11:30:00,77.2,61.4,30.06,ESE,112,5.6,6.7,50,0.00,,,-99.99,Homeseer,2013-02-11 16:30:00,
2013-02-11 11:40:00,77.0,61.2,30.06,North,0,4.5,4.5,50,0.00,,,-99.99,Homeseer,2013-02-11 16:40:00,
2013-02-11 11:50:00,77.4,60.7,30.06,North,0,6.7,6.7,48,0.00,,,-99.99,Homeseer,2013-02-11 16:50:00,
2013-02-11 12:00:00,77.5,61.2,30.06,North,0,4.3,6.3,49,0.00,,,-99.99,Homeseer,2013-02-11 17:00:00,
2013-02-11 12:10:00,77.5,60.8,30.06,North,0,6.0,8.1,48,0.00,,,-99.99,Homeseer,2013-02-11 17:10:00,
2013-02-11 12:20:00,77.7,61.9,30.06,SSE,157,2.9,3.1,50,0.00,,,-99.99,Homeseer,2013-02-11 17:20:00,
2013-02-11 12:30:00,77.5,61.2,30.06,SSE,157,4.9,7.2,49,0.00,,,-99.99,Homeseer,2013-02-11 17:30:00,
2013-02-11 12:40:00,77.7,61.9,30.06,North,0,2.9,3.8,50,0.00,,,-99.99,Homeseer,2013-02-11 17:40:00,
2013-02-11 12:50:00,78.3,62.4,30.03,SSE,157,4.0,4.0,50,0.00,,,-99.99,Homeseer,2013-02-11 17:50:00,
2013-02-11 13:00:00,78.4,62.1,30.03,SSE,157,5.6,5.6,49,0.00,,,-99.99,Homeseer,2013-02-11 18:00:00,
2013-02-11 13:10:00,77.9,60.2,30.03,SSE,157,6.3,6.3,46,0.00,,,-99.99,Homeseer,2013-02-11 18:10:00,
2013-02-11 13:20:00,78.6,61.8,30.03,SSE,157,3.6,4.3,48,0.00,,,-99.99,Homeseer,2013-02-11 18:20:00,
2013-02-11 13:30:00,78.6,60.9,30.03,SE,135,4.0,6.5,46,0.00,,,-99.99,Homeseer,2013-02-11 18:30:00,
2013-02-11 13:40:00,78.8,61.1,30.03,South,180,4.0,5.4,46,0.00,,,-99.99,Homeseer,2013-02-11 18:40:00,
2013-02-11 13:50:00,79.0,61.2,30.03,SE,135,2.9,3.6,46,0.00,,,-99.99,Homeseer,2013-02-11 18:50:00,
2013-02-11 14:00:00,79.5,61.7,30.03,South,180,4.7,7.2,46,0.00,,,-99.99,Homeseer,2013-02-11 19:00:00,
2013-02-11 14:10:00,79.2,60.9,30.03,North,0,4.5,4.5,45,0.00,,,-99.99,Homeseer,2013-02-11 19:10:00,
2013-02-11 14:20:00,79.0,60.8,30.00,North,0,3.8,4.7,45,0.00,,,-99.99,Homeseer,2013-02-11 19:20:00,
2013-02-11 14:30:00,79.2,60.9,30.00,South,180,4.9,4.9,45,0.00,,,-99.99,Homeseer,2013-02-11 19:30:00,
2013-02-11 14:40:00,79.2,60.9,30.00,South,180,5.6,5.8,45,0.00,,,-99.99,Homeseer,2013-02-11 19:40:00,
2013-02-11 14:50:00,79.0,60.8,30.00,South,180,3.1,3.1,45,0.00,,,-99.99,Homeseer,2013-02-11 19:50:00,
2013-02-11 15:00:00,78.6,60.9,30.00,North,0,4.0,4.0,46,0.00,,,-99.99,Homeseer,2013-02-11 20:00:00,
2013-02-11 15:10:00,78.8,60.6,30.00,ESE,112,4.0,4.0,45,0.00,,,-99.99,Homeseer,2013-02-11 20:10:00,
2013-02-11 15:20:00,78.6,60.9,30.00,South,180,4.9,4.9,46,0.00,,,-99.99,Homeseer,2013-02-11 20:20:00,
2013-02-11 15:30:00,78.3,60.1,30.00,SSE,157,4.7,4.7,45,0.00,,,-99.99,Homeseer,2013-02-11 20:30:00,
2013-02-11 15:40:00,78.1,60.0,30.00,ESE,112,4.3,5.8,45,0.00,,,-99.99,Homeseer,2013-02-11 20:40:00,
2013-02-11 15:50:00,77.9,60.2,29.97,North,0,4.9,4.9,46,0.00,,,-99.99,Homeseer,2013-02-11 20:50:00,
2013-02-11 16:00:00,77.5,59.4,30.00,SSE,157,5.4,5.8,45,0.00,,,-99.99,Homeseer,2013-02-11 21:00:00,
2013-02-11 16:10:00,77.7,60.1,30.00,ESE,112,3.6,5.6,46,0.00,,,-99.99,Homeseer,2013-02-11 21:10:00,
2013-02-11 16:20:00,77.2,59.6,30.00,SE,135,4.5,4.9,46,0.00,,,-99.99,Homeseer,2013-02-11 21:20:00,
2013-02-11 16:30:00,77.0,60.4,30.00,South,180,4.0,4.0,48,0.00,,,-99.99,Homeseer,2013-02-11 21:30:00,
2013-02-11 16:40:00,76.8,60.6,30.00,SSE,157,4.0,5.4,49,0.00,,,-99.99,Homeseer,2013-02-11 21:40:00,
2013-02-11 16:50:00,76.6,60.4,29.97,WSW,247,3.8,4.3,49,0.00,,,-99.99,Homeseer,2013-02-11 21:50:00,
2013-02-11 17:00:00,76.5,60.8,29.97,South,180,3.8,3.8,50,0.00,,,-99.99,Homeseer,2013-02-11 22:00:00,
2013-02-11 17:10:00,76.1,60.4,29.97,South,180,3.1,3.1,50,0.00,,,-99.99,Homeseer,2013-02-11 22:10:00,
2013-02-11 17:20:00,75.7,60.1,29.97,SSE,157,3.8,4.0,50,0.00,,,-99.99,Homeseer,2013-02-11 22:20:00,
2013-02-11 17:30:00,75.6,60.8,29.97,SW,225,5.6,5.6,52,0.00,,,-99.99,Homeseer,2013-02-11 22:30:00,
2013-02-11 17:40:00,75.0,61.1,29.97,North,0,4.3,4.3,54,0.00,,,-99.99,Homeseer,2013-02-11 22:40:00,
2013-02-11 17:50:00,74.7,60.8,29.97,SSE,157,4.5,4.5,54,0.00,,,-99.99,Homeseer,2013-02-11 22:50:00,
2013-02-11 18:00:00,74.5,61.0,29.97,SSE,157,2.2,2.5,55,0.00,,,-99.99,Homeseer,2013-02-11 23:00:00,
2013-02-11 18:10:00,74.3,60.8,29.97,North,0,3.1,7.4,55,0.00,,,-99.99,Homeseer,2013-02-11 23:10:00,
2013-02-11 18:20:00,74.1,60.7,29.97,SSE,157,4.3,4.3,55,0.00,,,-99.99,Homeseer,2013-02-11 23:20:00,
2013-02-11 18:30:00,73.9,60.9,29.97,North,0,3.8,5.6,56,0.00,,,-99.99,Homeseer,2013-02-11 23:30:00,
2013-02-11 18:40:00,73.8,61.1,29.97,SE,135,3.6,3.6,57,0.00,,,-99.99,Homeseer,2013-02-11 23:40:00,
2013-02-11 18:50:00,73.6,61.0,29.97,SSE,157,4.3,4.3,57,0.00,,,-99.99,Homeseer,2013-02-11 23:50:00,
2013-02-11 19:00:00,73.6,61.3,29.97,North,0,3.4,3.4,58,0.00,,,-99.99,Homeseer,2013-02-12 00:00:00,
2013-02-11 19:10:00,73.4,61.9,29.97,South,180,5.4,5.4,60,0.00,,,-99.99,Homeseer,2013-02-12 00:10:00,
2013-02-11 19:20:00,73.4,61.9,29.97,WSW,247,3.6,3.6,60,0.00,,,-99.99,Homeseer,2013-02-12 00:20:00,
2013-02-11 19:30:00,73.4,61.9,29.97,North,0,2.7,3.8,60,0.00,,,-99.99,Homeseer,2013-02-12 00:30:00,
2013-02-11 19:40:00,73.2,61.7,29.97,SSE,157,2.9,4.0,60,0.00,,,-99.99,Homeseer,2013-02-12 00:40:00,
2013-02-11 19:50:00,73.2,62.1,29.97,WSW,247,2.9,2.9,61,0.00,,,-99.99,Homeseer,2013-02-12 00:50:00,
2013-02-11 20:00:00,73.2,62.4,29.97,North,0,4.0,6.5,62,0.00,,,-99.99,Homeseer,2013-02-12 01:00:00,
2013-02-11 20:10:00,73.2,62.8,29.97,North,0,4.3,4.3,63,0.00,,,-99.99,Homeseer,2013-02-12 01:10:00,
2013-02-11 20:20:00,73.0,62.6,29.97,North,0,3.6,3.6,63,0.00,,,-99.99,Homeseer,2013-02-12 01:20:00,
2013-02-11 20:30:00,73.0,62.6,29.97,WSW,247,4.7,4.7,63,0.00,,,-99.99,Homeseer,2013-02-12 01:30:00,
2013-02-11 20:40:00,73.0,62.6,29.97,North,0,3.1,3.1,63,0.00,,,-99.99,Homeseer,2013-02-12 01:40:00,
2013-02-11 20:50:00,73.0,62.9,29.97,North,0,4.3,5.8,64,0.00,,,-99.99,Homeseer,2013-02-12 01:50:00,
2013-02-11 21:00:00,73.0,62.9,29.97,South,180,4.5,4.5,64,0.00,,,-99.99,Homeseer,2013-02-12 02:00:00,
2013-02-11 21:10:00,73.0,62.9,29.97,SSE,157,4.0,4.0,64,0.00,,,-99.99,Homeseer,2013-02-12 02:10:00,
2013-02-11 21:20:00,72.9,62.8,30.00,SW,225,4.9,7.8,64,0.00,,,-99.99,Homeseer,2013-02-12 02:20:00,
2013-02-11 21:30:00,73.0,63.3,30.00,South,180,2.7,3.4,65,0.00,,,-99.99,Homeseer,2013-02-12 02:30:00,
2013-02-11 21:40:00,72.9,62.8,30.00,West,270,2.2,2.2,64,0.00,,,-99.99,Homeseer,2013-02-12 02:40:00,
2013-02-11 21:50:00,72.9,63.2,30.00,SSE,157,4.3,7.4,65,0.00,,,-99.99,Homeseer,2013-02-12 02:50:00,
2013-02-11 22:00:00,72.9,63.2,30.00,North,0,2.7,2.7,65,0.00,,,-99.99,Homeseer,2013-02-12 03:00:00,
2013-02-11 22:10:00,72.9,63.2,30.00,WSW,247,3.1,4.0,65,0.00,,,-99.99,Homeseer,2013-02-12 03:10:00,
2013-02-11 22:20:00,72.9,63.2,30.00,North,0,3.1,4.9,65,0.00,,,-99.99,Homeseer,2013-02-12 03:20:00,
2013-02-11 22:30:00,72.9,63.2,29.97,North,0,4.0,6.3,65,0.00,,,-99.99,Homeseer,2013-02-12 03:30:00,
2013-02-11 22:40:00,72.9,62.8,29.97,North,0,3.6,3.6,64,0.00,,,-99.99,Homeseer,2013-02-12 03:40:00,
2013-02-11 22:50:00,72.9,63.2,29.97,South,180,4.7,6.0,65,0.00,,,-99.99,Homeseer,2013-02-12 03:50:00,
2013-02-11 23:00:00,72.7,62.6,29.97,North,0,3.8,5.4,64,0.00,,,-99.99,Homeseer,2013-02-12 04:00:00,
2013-02-11 23:10:00,72.7,63.0,29.97,WSW,247,5.8,5.8,65,0.00,,,-99.99,Homeseer,2013-02-12 04:10:00,
2013-02-11 23:20:00,72.7,63.0,29.97,North,0,2.7,4.0,65,0.00,,,-99.99,Homeseer,2013-02-12 04:20:00,
2013-02-11 23:30:00,72.7,63.0,29.97,North,0,4.3,4.3,65,0.00,,,-99.99,Homeseer,2013-02-12 04:30:00,
2013-02-11 23:40:00,72.7,63.0,29.97,North,0,4.7,4.7,65,0.00,,,-99.99,Homeseer,2013-02-12 04:40:00,
2013-02-11 23:50:00,72.7,63.3,29.97,South,180,6.7,9.4,66,0.00,,,-99.99,Homeseer,2013-02-12 04:50:00,